Location: 81360 Arifat, France
(43.7204°N, 2.3408°E)
Time: 20:57:21
(UTC+01:00)

BlueWalker 3 - Pass Details

Date: 30 November 2023
Orbit: 485 x 500 km, 53.2° (Epoch: 29 February)

Event Time Altitude Azimuth Distance (km) Brightness Sun altitude
Exits shadow 04:22:03 - 59° (ENE) 2,227 5.9 -39.2°
Enters shadow 05:21:01 -64° 274° (W) 11,977 8.9 -28.6°
Maximum altitude 05:56:51 28° 18° (NNE) 966 3.4 -22.2°
